This demonstration page uses our WeatherBlox Daily Observations layout. Learn more.

Left ArrowRight Arrow

Hourly Observations for May 24, 2018

Temp ( °F °C ) Dew Point ( °F °C ) Humidity (%) Winds ( mph kmh ) Pressure ( in mb ) Visibility ( mi km ) Precip ( " mm )
12:51 am 00:51 Clear 74 23.3 20 -6.7 13 13 WNW 10 17 29.84 1010 10 16 0.00 0.00
1:51 am 01:51 Clear 72 22.2 21 -6.1 15 15 NNW 9 15 29.83 1010 10 16 0.00 0.00
2:51 am 02:51 Clear 70 21.1 21 -6.1 16 16 NNW 8 13 29.84 1011 10 16 0.00 0.00
3:51 am 03:51 Clear 68 20 21 -6.1 17 17 NNW 7 11 29.87 1011 10 16 0.00 0.00
4:51 am 04:51 Clear 62 16.7 20 -6.7 20 20 S 6 9 29.89 1012 10 16 0.00 0.00
5:51 am 05:51 Sunny 61 16.1 19 -7.2 20 20 ESE 5 7 29.92 1013 10 16 0.00 0.00
6:51 am 06:51 Sunny 69 20.6 21 -6.1 16 16 SE 6 9 29.93 1013 10 16 0.00 0.00
7:51 am 07:51 Sunny 74 23.3 21 -6.1 14 14 S 5 7 29.93 1014 10 16 0.00 0.00
8:51 am 08:51 Sunny 78 25.6 22 -5.6 12 12 VRB 3 6 29.93 1014 10 16 0.00 0.00
9:51 am 09:51 Sunny 83 28.3 21 -6.1 10 10 S 6 9 29.92 1013 10 16 0.00 0.00
10:51 am 10:51 Sunny 85 29.4 21 -6.1 9 9 undefined N/A 29.91 1013 10 16 0.00 0.00
11:51 am 11:51 Sunny 89 31.7 21 -6.1 8 8 undefined N/A 29.90 1013 10 16 0.00 0.00
12:51 pm 12:51 Sunny 90 32.2 20 -6.7 8 8 Calm 29.87 1012 10 16 0.00 0.00
1:51 pm 13:51 Sunny 93 33.9 18 -7.8 6 6 VRB 6 9 29.84 1011 10 16 0.00 0.00
2:51 pm 14:51 Sunny 95 35 17 -8.3 6 6 VRB 3 6 29.82 1010 10 16 0.00 0.00
3:51 pm 15:51 Sunny 95 35 9 -12.8 4 4 SSE 12 19 29.79 1009 10 16 0.00 0.00
4:51 pm 16:51 Sunny 94 34.4 12 -11.1 5 5 undefined N/A 29.79 1009 10 16 0.00 0.00
5:51 pm 17:51 Sunny 94 34.4 14 -10 5 5 SE 3 6 29.78 1009 10 16 0.00 0.00
6:51 pm 18:51 Sunny 93 33.9 14 -10 5 5 Calm 29.78 1008 10 16 0.00 0.00
7:51 pm 19:51 Clear 88 31.1 21 -6.1 8 8 NW 12 19 29.79 1009 10 16 0.00 0.00
8:51 pm 20:51 Clear 85 29.4 22 -5.6 10 10 NW 14 22 29.81 1010 10 16 0.00 0.00
9:51 pm 21:51 Clear 83 28.3 24 -4.4 11 11 NW 14 22 29.83 1010 10 16 0.00 0.00
10:51 pm 22:51 Clear 79 26.1 25 -3.9 14 14 WNW 15 24 29.85 1011 10 16 0.00 0.00
11:51 pm 23:51 Clear 76 24.4 24 -4.4 14 14 WNW 12 19 29.85 1011 10 16 0.00 0.00

Powered by AerisWeather